Location: Newark
(49.1022°N, 20.8503°E)
Time: 01:02:55
(UTC+00:00)

N. Korean satellite - Visible Passes

Search period start: 01 October 2020 00:00
Search period end: 11 October 2020 00:00
Orbit: 455 x 503 km, 97.2° (Epoch: 30 September)

Date Brightness Start Highest point End Pass type
(mag) Time Alt. Az. Time Alt. Az. Time Alt. Az.
02 Oct 8.3 03:50:15 10° NNE 03:53:39 38° E 03:56:58 10° SSE visible
03 Oct 9.6 03:24:43 10° NE 03:27:25 20° E 03:30:05 10° SE visible
04 Oct 10.4 03:00:28 10° ENE 03:01:06 10° E 03:01:44 10° E visible
05 Oct 7.3 04:05:18 10° NNE 04:08:52 58° E 04:12:19 10° S visible
06 Oct 8.9 03:39:32 10° NNE 03:42:41 28° E 03:45:46 10° SSE visible
07 Oct 9.9 03:14:16 10° NE 03:16:25 15° E 03:18:31 10° SE visible
08 Oct 10.5 16:34:50 10° WSW 16:36:21 12° W 16:37:52 10° WNW visible
09 Oct 8.0 03:54:28 10° NNE 03:57:52 42° E 04:01:11 10° S visible
10 Oct 9.4 03:28:49 10° NE 03:31:38 22° E 03:34:23 10° SE visible
